STARLINK-1091 (44940 NORAD) Tracking and Keplerian Element Data

This shows tracking and keplerian element data for the satellite.

Feedback or suggestion? Click here.




ElementValue
Catalog44940
NameSTARLINK-1091
Epoch Orbit1270
Epoch Day88.25001157
Epoch Year2020
RAAN359.4381
Inclination53.0017
Eccentricity0.0001367
Argument of Perigee63.9194
Mean Anonmoly17.6256
Mean Motion15.12870428
Decay Rate-0.00072723
L11 44940U 20001AC 20088.25001157 -.00072723 00000-0 -41111-2 0 9996
L22 44940 53.0017 359.4381 0001367 63.9194 17.6256 15.12870428 12706

Live tracking and technical data element details for STARLINK-1091 (NORAD 44940). STARLINK-1091 can be tracked NOW for your location showing map with azimuth and elevation plus other details from your city location.

Track the satellite on the map from your city or location and see movement details for azimuth, elevation, latitude, longitude, range, height, and movement on the map or in text.







IsCatalogInMostPopularTable: catalog: 44940, numindb: 17
Update: records affected: 1



GetName: 44940 STARLINK-1091

Hit Count: updated at: Mon, 30 Mar 2020 13:16:20 GMT